Location: Bonningues
(50.7927°N, 2.0150°E)
Time: 15:22:39
(UTC+00:00)

CZ-2C R/B - Pass Details

Date: 08 August 2020
Orbit: 784 x 870 km, 98.3° (Epoch: 19 September)

Event Time Altitude Azimuth Distance (km) Brightness Sun altitude
Rises 20:16:02 0° 12° (NNE) 3,292 6.1 -7.7°
Reaches altitude 10° 20:18:23 10° 10° (N) 2,357 5.4 -8.0°
Maximum altitude 20:23:31 67° 289° (WNW) 853 3.0 -8.7°
Drops below altitude 10° 20:28:39 10° 208° (SSW) 2,352 4.9 -9.3°
Sets 20:30:59 0° 205° (SSW) 3,284 5.6 -9.6°
